Regional Weather Roundup
Issued by NWS Goodland, KS

Home | Current Version | Previous Version | Graphics & Text | Print | Product List | Glossary On
Versions: 1 2 3 4 5 6 7 8 9 10 11 12 13 14 15 16 17 18 19 20 21 22 23 24 25 26 27 28 29 30 31 32 33 34 35 36 37 38 39 40 41 42 43 44 45 46 47 48 49 50
000
ASUS43 KGLD 280608
RWRGLD

GOODLAND FORECAST AREA HOURLY WEATHER ROUNDUP
NATIONAL WEATHER SERVICE GOODLAND KS
1200 AM MDT TUE JUL 28 2015

...OFFICIAL OBSERVATIONS...

CITY           SKY/WX    TMP DP  RH WIND       PRES   REMARKS
GOODLAND KS    CLEAR     79  64  60 S20G26    29.81S
HILL CITY KS   CLEAR     82  69  64 S16G24    29.78F
IMPERIAL NEB   CLEAR     80  67  64 S14       29.75R
MCCOOK NEB     CLEAR     82  69  64 S17G28    29.73S
AKRON CO         N/A    N/A N/A N/A MISG      29.86R
BURLINGTON CO  CLEAR     76  61  59 S17       29.85R
LIMON CO       CLEAR     64  56  75 NW9       29.95R
$$

...UNOFFICIAL OBSERVATIONS...

CITY           SKY/WX    TMP DP  RH WIND       PRES   REMARKS
COLBY KS       CLEAR     81  70  69 S18G25    29.81S
LENORA KS        N/A     80  32  17 MISG        N/A
NORTON KS      CLEAR     79  63  57 SE13G21   29.77
SHARON SPRINGS   N/A     78  67  68 N17G24      N/A
TRIBUNE KS       N/A    N/A N/A N/A MISG        N/A
KIT CARSON CO    N/A     71  60  67 MISG        N/A
YUMA CO          N/A     69  58  68 CALM        N/A
$$


USA.gov is the U.S. government's official web portal to all federal, state and local government web resources and services.